Change the Weather History Date:

Tuesday, October 15, 2013

  Actual Average Record
Temperature  
Mean Temperature 60 °F 55 °F  
Max Temperature 66 °F 66 °F 87 °F (1897)
Min Temperature 53 °F 45 °F 27 °F (1876)
Degree Days  
Heating Degree Days 5 10  
Month to date heating degree days 57 124  
Since 1 July heating degree days 91 199  
Cooling Degree Days 0 0  
Month to date cooling degree days 31 13  
Year to date cooling degree days 1160 1062  
Growing Degree Days 10 (Base 50)    
Moisture  
Dew Point 55 °F    
Average Humidity 80    
Maximum Humidity 93    
Minimum Humidity 66    
Precipitation  
Precipitation 0.05 in 0.10 in 1.14 in (1992)
Month to date precipitation 2.62 1.55  
Year to date precipitation 35.41 34.00  
Snow  
Snow 0.00 in 0.00 in T in (1954)
Month to date snowfall 0.0 0.1  
Since 1 July snowfall 0.0 0.1  
Since 1 September snowfall 0.0 0.1  
Snow Depth 0.00 in    
Sea Level Pressure  
Sea Level Pressure 30.00 in    
Wind  
Wind Speed 9 mph (SSE)    
Max Wind Speed 18 mph    
Max Gust Speed 24 mph    
Visibility 9 miles    
Events Rain    
T = Trace of Precipitation, MM = Missing Value Source: NWS Daily Summary

Daily Weather History Graph

Daily Weather History Graph

Search for Another Location

Airport or City:

Trip Planner

Search our weather history database for the weather conditions in past years. The results will help you decide how hot, cold, wet, or windy it might be!

Date:

Astronomy

Oct. 15, 2013 Rise Set
Actual Time 7:55 AM EDT 7:05 PM EDT
Civil Twilight 7:28 AM EDT 7:32 PM EDT
Nautical Twilight 6:57 AM EDT 8:03 PM EDT
Astronomical Twilight 6:25 AM EDT 8:35 PM EDT
Moon 5:09 PM EDT (10/15) 4:18 AM EDT (10/15)
Length of Visible Light 12h 04m
Length of Day
11h 09m
Waxing Gibbous, 87% of the Moon is Illuminated
Oct 15
Waxing Gibbous
Oct 18
Full
Oct 26
Last Quarter
Nov 3
New
Nov 10
First Quarter

Hourly Weather History & Observations

Time (EDT) Temp. Dew Point Humidity Pressure Visibility Wind Dir Wind Speed Gust Speed Precip Events Conditions
12:54 AM 54.0 °F 43.0 °F 66% 30.15 in 10.0 mi East 4.6 mph - N/A   Mostly Cloudy
1:54 AM 54.0 °F 43.0 °F 66% 30.13 in 10.0 mi East 5.8 mph - N/A   Overcast
2:54 AM 54.0 °F 44.1 °F 69% 30.12 in 10.0 mi ESE 5.8 mph - N/A   Overcast
3:54 AM 54.0 °F 45.0 °F 72% 30.10 in 10.0 mi East 5.8 mph - N/A   Overcast
4:54 AM 55.0 °F 46.9 °F 74% 30.08 in 10.0 mi East 4.6 mph - N/A   Overcast
5:54 AM 54.0 °F 48.9 °F 83% 30.08 in 10.0 mi SE 5.8 mph - N/A   Overcast
6:54 AM 55.0 °F 50.0 °F 83% 30.07 in 10.0 mi ESE 8.1 mph - N/A   Overcast
7:54 AM 55.0 °F 51.1 °F 86% 30.05 in 10.0 mi SE 8.1 mph - N/A   Overcast
8:54 AM 55.9 °F 53.1 °F 90% 30.05 in 7.0 mi SSE 6.9 mph - N/A   Overcast
9:54 AM 57.0 °F 54.0 °F 89% 30.05 in 6.0 mi SE 6.9 mph - N/A   Overcast
10:54 AM 59.0 °F 55.9 °F 90% 30.04 in 7.0 mi SE 5.8 mph - N/A   Overcast
11:54 AM 62.1 °F 57.0 °F 84% 30.02 in 9.0 mi SSE 8.1 mph - N/A   Overcast
12:54 PM 64.0 °F 59.0 °F 84% 30.01 in 9.0 mi SE 4.6 mph - N/A   Overcast
1:54 PM 66.0 °F 59.0 °F 78% 29.99 in 10.0 mi South 10.4 mph - N/A Rain Light Rain
2:54 PM 64.0 °F 60.1 °F 87% 29.96 in 9.0 mi South 12.7 mph - N/A   Overcast
3:54 PM 64.9 °F 60.1 °F 84% 29.91 in 9.0 mi South 15.0 mph - N/A Rain Light Rain
4:54 PM 64.0 °F 61.0 °F 90% 29.93 in 10.0 mi SSW 10.4 mph - N/A   Overcast
5:54 PM 64.9 °F 61.0 °F 87% 29.92 in 10.0 mi South 9.2 mph - N/A   Overcast
6:54 PM 64.0 °F 61.0 °F 90% 29.91 in 10.0 mi South 15.0 mph - N/A   Overcast
7:39 PM 64.4 °F 60.8 °F 88% 29.91 in 5.0 mi South 12.7 mph - N/A Rain Light Rain
7:54 PM 64.0 °F 62.1 °F 93% 29.91 in 4.0 mi South 11.5 mph 21.9 mph N/A Rain Light Rain
8:54 PM 64.0 °F 62.1 °F 93% 29.92 in 7.0 mi SSW 11.5 mph - N/A Rain Light Rain
9:54 PM 64.0 °F 62.1 °F 93% 29.92 in 10.0 mi SSW 13.8 mph - N/A   Light Drizzle
10:54 PM 64.0 °F 61.0 °F 90% 29.92 in 10.0 mi SSW 12.7 mph - N/A   Overcast
11:07 PM 64.4 °F 60.8 °F 88% 29.92 in 10.0 mi SSW 10.4 mph - N/A   Overcast
11:54 PM 64.0 °F 61.0 °F 90% 29.91 in 10.0 mi SW 11.5 mph - N/A   Overcast